GFSGL_con_lsi_198.txt.gz
Lid_Strength_Index
12 12 12 12 12 11 11 11 10 10 9 9 8 8 9 9 8 8 8 9 9 9 9 9 10 9 8 8 7 7 6 7 8 7 6 6 7 7 7 7 7 7 7
14 14 14 13 13 13 13 12 12 12 11 10 10 10 10 10 10 10 10 10 10 10 10 10 11 10 10 9 9 9 9 9 10 11 9 9 9 8 8 8 8 8 8
14 15 15 14 14 14 14 13 13 13 12 11 11 11 12 12 12 12 12 12 12 12 12 13 13 12 12 12 12 12 11 12 10 11 11 10 10 9 10 9 9 8 8
14 15 15 15 15 15 15 14 14 14 13 13 12 13 13 13 14 14 13 13 12 13 13 13 14 14 14 13 13 13 12 12 11 11 12 12 11 10 10 11 11 10 10
16 16 16 15 15 15 15 15 15 15 15 14 14 14 14 14 14 15 15 15 15 15 14 14 15 15 14 14 13 13 13 13 13 13 13 12 12 12 13 12 13 12 11
17 17 16 16 16 16 16 16 16 16 16 15 15 15 15 15 14 15 15 15 15 15 15 14 14 14 14 14 13 13 13 13 14 13 14 14 14 14 13 13 13 13 14
17 17 17 17 17 17 17 17 17 16 16 16 16 16 16 16 15 15 15 15 15 15 15 15 15 16 14 14 14 14 14 14 14 14 15 15 15 14 14 14 14 13 14
19 19 18 18 18 18 18 18 18 17 17 17 17 16 17 16 15 15 15 15 15 16 16 16 16 16 14 14 15 15 15 15 15 15 14 15 15 14 14 14 14 13 12
19 20 19 18 19 18 19 18 18 18 18 17 17 18 18 17 15 15 16 15 16 16 16 16 16 15 14 14 15 16 16 15 14 13 14 14 13 13 13 14 15 15 16
21 21 20 19 19 20 20 19 19 18 19 18 18 18 18 18 16 15 15 15 16 16 15 16 15 14 13 13 14 15 16 15 14 15 15 14 14 14 14 14 15 17 17
21 21 21 20 20 20 20 19 19 19 19 19 19 18 18 18 17 15 14 15 15 15 15 16 15 13 13 14 14 15 15 14 15 16 16 16 16 15 15 15 15 16 18
21 22 21 20 19 19 19 19 19 19 19 19 19 19 18 18 17 16 15 14 14 15 15 15 14 13 14 14 15 14 14 16 17 17 17 17 17 16 16 16 16 16 16
21 22 21 21 20 20 20 20 20 20 19 19 19 19 18 17 17 16 15 14 14 15 14 14 14 14 15 16 16 16 16 17 17 17 17 17 16 16 16 16 16 16 16
22 22 22 21 21 20 19 19 19 19 19 18 18 18 17 17 17 16 14 14 14 14 14 15 16 16 17 17 17 16 16 16 17 17 17 16 16 17 17 16 17 17 18
21 21 20 20 20 20 20 20 19 19 18 18 17 17 17 17 16 15 14 15 14 14 17 17 17 18 18 17 16 16 16 16 17 16 17 17 17 17 17 16 17 17 19
20 20 20 20 20 20 20 20 20 19 18 17 17 17 17 16 16 15 15 15 15 14 17 18 18 18 18 18 17 17 17 17 16 17 17 17 17 17 17 17 17 18 19
21 22 22 22 21 21 21 21 22 21 20 20 19 18 18 17 16 16 16 15 14 15 19 19 19 19 19 18 18 18 18 17 18 18 17 17 17 17 17 17 17 18 18
24 25 22 22 22 22 22 22 23 23 23 22 21 20 19 18 17 16 15 15 18 19 20 21 21 20 20 19 19 19 18 18 18 18 17 17 17 17 18 18 18 19 19
24 23 23 23 23 24 23 23 23 23 23 24 23 22 21 20 18 17 17 20 21 21 21 21 21 21 20 20 20 19 19 19 19 19 19 18 17 18 18 18 18 19 20
25 25 25 23 24 24 23 24 24 24 23 23 22 21 22 22 20 19 20 21 22 22 22 22 22 22 21 21 21 20 20 19 18 18 17 17 17 17 17 18 18 19 19
24 24 25 24 24 24 24 24 23 23 23 22 22 21 19 19 19 20 21 22 22 23 23 23 22 22 22 21 21 20 20 19 18 18 17 17 17 17 17 17 17 18 18
24 24 24 25 24 24 24 23 23 23 22 23 22 21 19 21 21 22 22 22 22 23 23 23 23 22 22 21 21 21 20 20 19 18 18 17 17 17 17 17 17 18 18
24 24 24 24 24 24 24 23 23 23 22 22 22 22 22 22 22 23 23 22 22 23 23 23 23 23 22 22 21 20 21 20 19 18 19 19 18 17 17 18 18 19 19
23 23 23 22 22 23 23 22 22 23 24 22 22 22 22 22 22 22 23 22 23 23 23 23 24 24 23 23 21 20 20 20 19 19 19 19 19 18 18 18 18 18 18
23 23 23 22 22 22 22 22 22 22 21 21 21 21 21 22 22 22 22 23 24 24 24 24 24 24 24 24 23 22 21 21 21 21 21 20 20 19 18 18 17 17 17
23 23 23 23 23 23 23 23 22 21 21 21 21 21 21 21 22 22 22 23 24 24 24 24 24 24 24 23 23 21 21 19 19 18 17 16 15 14 14 13 13 13 14

GFSGL_con_lsi_201.txt.gz
Lid_Strength_Index
13 13 13 12 12 11 11 12 13 12 11 11 10 9 9 9 8 8 8 8 8 8 8 9 9 8 8 8 7 7 7 7 9 7 7 7 8 8 8 8 9 9 9
13 14 14 13 13 13 12 12 11 11 10 10 10 10 11 11 10 10 10 10 10 10 11 11 11 10 10 10 10 10 10 10 10 11 10 9 10 9 10 10 9 9 9
14 14 14 14 14 14 14 13 12 12 11 11 11 12 12 12 12 11 11 11 11 12 12 13 13 12 12 12 12 12 12 12 11 12 13 11 11 11 12 11 11 11 10
14 15 15 14 14 14 14 14 13 12 12 12 12 12 12 12 13 13 12 12 13 13 13 14 14 14 15 14 14 14 14 14 13 13 13 12 12 12 13 14 14 13 12
15 15 16 15 14 14 14 14 14 13 13 13 13 13 13 13 14 14 14 14 14 14 14 15 15 15 15 15 15 15 14 14 14 14 14 14 15 16 16 15 16 16 15
16 16 16 16 16 16 15 15 14 14 14 14 14 14 15 15 15 15 14 14 15 15 16 15 15 16 15 15 15 14 14 16 16 16 16 17 17 17 17 17 17 18 18
17 17 17 17 17 17 17 16 16 16 16 16 15 16 16 16 15 16 15 15 15 16 16 16 16 15 14 14 14 14 15 15 15 16 17 17 17 16 16 16 16 16 16
18 18 18 18 18 18 18 18 17 17 17 17 17 17 17 16 15 16 16 16 16 16 16 16 16 15 15 15 15 15 16 15 15 15 15 15 15 14 14 15 15 15 14
19 19 18 18 18 18 18 19 18 18 17 18 17 17 17 16 15 14 15 16 16 16 16 16 16 15 14 13 15 15 16 15 13 13 13 13 13 13 13 15 17 17 19
20 20 19 19 19 19 19 19 18 18 18 17 18 17 18 17 15 15 15 15 16 16 15 15 14 14 13 13 15 15 16 15 15 15 15 14 14 14 13 14 16 19 19
20 20 20 19 20 19 19 19 19 18 18 18 19 18 18 18 16 15 14 15 15 15 15 15 14 13 13 13 13 15 15 14 15 16 16 16 15 15 14 14 15 16 19
20 21 21 20 19 19 19 19 19 18 19 19 18 18 18 18 17 16 15 14 14 15 15 14 13 12 12 13 14 14 13 15 17 17 17 17 16 16 15 15 16 16 15
20 21 21 20 19 19 19 19 19 18 18 18 18 18 18 17 17 16 15 14 14 14 13 13 12 12 13 14 14 14 16 17 17 18 18 17 15 15 16 16 16 16 17
21 21 21 20 20 20 19 18 18 18 18 17 17 17 17 17 16 15 14 13 12 13 12 13 13 14 14 15 17 16 16 16 17 17 17 16 16 16 17 16 17 17 18
20 20 20 19 19 19 19 18 18 18 17 17 17 17 17 17 15 14 14 14 14 14 14 15 16 17 18 17 17 16 16 15 16 16 17 17 17 17 17 16 17 18 19
20 20 19 19 19 19 19 19 19 18 18 17 17 17 16 16 15 15 14 14 14 14 16 18 18 18 18 17 17 17 17 17 16 17 18 18 17 17 18 17 17 18 19
19 19 20 20 20 20 20 20 20 19 19 18 18 18 17 17 16 15 15 14 14 15 18 18 19 19 18 18 18 18 18 17 19 18 18 18 17 17 18 18 18 18 18
21 23 20 20 20 21 21 21 21 21 21 20 19 19 18 17 17 16 15 15 18 17 19 20 20 20 20 20 19 19 19 19 19 19 19 18 19 19 19 19 18 18 19
22 21 21 21 21 22 22 22 22 22 22 21 20 19 19 19 17 16 16 19 20 20 20 20 20 20 20 21 20 20 20 20 20 20 21 20 19 18 18 18 18 18 18
23 23 23 22 22 23 22 22 22 22 22 21 21 20 20 21 20 18 18 19 20 21 21 21 21 21 22 22 22 22 22 21 21 20 20 19 18 18 18 18 18 18 18
22 22 24 23 22 22 22 22 21 21 22 21 20 19 17 19 19 19 19 20 20 21 21 21 21 22 22 22 23 22 22 22 21 21 20 19 19 19 18 17 17 17 17
22 22 23 23 22 22 22 21 21 21 21 21 20 19 16 19 20 20 20 20 20 20 21 21 22 22 22 22 23 23 23 23 22 21 21 20 19 19 19 18 18 18 18
23 22 22 22 22 22 22 22 21 21 20 20 20 20 20 20 20 21 21 20 21 21 21 22 22 23 22 23 23 23 23 23 22 21 22 21 20 20 19 19 19 19 18
22 22 21 21 21 21 21 21 20 21 21 21 20 20 20 20 20 20 21 21 21 21 21 22 23 24 24 24 23 23 22 22 21 22 22 21 21 21 20 20 20 19 19
22 22 21 21 21 21 21 21 21 20 20 20 20 20 19 20 20 20 20 21 21 22 23 23 23 23 24 24 24 24 23 22 23 22 22 23 23 23 22 21 20 19 17
22 22 21 21 21 21 21 20 20 20 20 19 19 19 19 20 20 20 20 21 22 22 23 23 23 24 24 24 24 23 23 21 22 21 21 21 20 18 17 16 15 15 13

GFSGL_con_lsi_207.txt.gz
Lid_Strength_Index
16 15 15 15 14 13 13 13 13 13 13 13 13 13 13 13 12 11 12 12 12 12 11 11 12 12 11 11 11 11 11 11 11 10 10 11 12 13 13 13 13 14 14
15 15 15 15 15 15 14 14 14 14 14 15 14 14 14 14 14 14 14 13 13 13 13 13 14 13 13 13 13 13 13 13 13 14 13 13 14 15 15 16 16 16 16
16 16 15 15 15 15 14 13 13 14 14 14 14 14 14 14 13 13 13 14 15 16 16 16 15 15 16 15 15 14 14 13 13 14 15 14 14 17 17 17 17 17 16
16 16 17 17 16 15 15 15 14 14 14 14 14 14 14 14 14 14 13 14 14 14 14 15 15 15 15 15 15 16 15 15 16 16 16 17 17 17 18 19 19 17 17
16 16 17 16 16 16 17 16 16 15 15 15 15 15 15 14 14 14 14 14 14 15 15 15 15 15 14 14 15 16 17 17 17 17 18 18 19 19 20 18 19 18 17
18 18 17 17 17 17 17 17 16 17 16 16 16 16 16 15 13 13 15 16 16 16 17 17 16 16 16 14 15 15 15 17 18 18 18 19 19 19 18 18 18 19 19
18 18 18 18 18 18 17 17 17 18 17 17 17 17 17 16 14 15 15 16 17 17 17 16 17 16 16 16 16 16 15 15 15 17 18 18 18 17 16 17 17 18 18
19 19 18 18 18 18 18 18 18 18 18 18 18 17 16 16 14 15 15 16 17 17 17 16 16 16 15 16 17 17 16 16 15 15 16 16 15 14 14 15 17 17 17
19 19 19 18 18 19 19 19 18 18 18 18 18 18 17 16 14 15 15 16 17 17 17 16 16 16 14 14 16 17 16 16 14 14 14 13 13 13 13 15 20 20 21
19 19 19 18 19 19 19 19 18 18 18 18 18 18 18 17 14 14 15 15 17 16 16 16 14 15 14 13 15 17 17 16 16 16 16 15 14 13 13 14 15 23 22
19 19 19 19 19 19 19 19 18 19 19 19 19 19 19 18 17 14 14 15 16 16 16 16 15 14 13 13 13 16 16 14 16 17 17 16 16 15 15 15 15 17 20
20 20 20 20 19 19 20 20 19 19 20 20 20 20 19 18 16 15 14 14 14 16 16 15 15 13 13 12 13 13 12 15 21 22 22 20 19 18 17 16 16 17 16
22 22 22 21 20 20 20 21 21 21 21 21 20 21 20 18 18 16 15 14 14 15 14 14 13 13 13 14 14 14 17 20 22 24 22 20 18 17 18 20 20 21 21
23 23 22 22 21 21 19 19 21 21 21 20 20 22 22 20 19 18 16 16 15 15 14 16 15 14 14 15 18 17 18 19 20 21 21 20 21 23 22 21 21 19 20
22 22 21 22 21 21 20 21 19 19 19 23 23 21 24 23 18 15 15 17 19 16 19 23 22 21 22 21 21 22 21 21 22 22 23 25 22 20 20 21 23 22 23
22 21 22 21 23 22 22 22 18 17 16 16 16 17 18 16 15 14 14 13 13 12 23 25 24 22 22 22 22 21 22 22 21 22 25 24 22 21 21 20 20 24 22
21 21 22 21 22 23 23 23 25 21 16 16 16 16 16 15 15 14 14 13 13 15 27 27 25 24 24 22 22 23 22 22 25 26 26 22 22 21 22 22 22 22 22
25 22 22 23 23 24 24 24 25 26 27 26 19 17 16 15 15 15 14 15 26 25 30 29 28 26 24 24 24 24 23 24 26 24 24 24 27 28 24 24 22 22 21
25 26 25 25 25 25 25 26 27 28 29 30 29 22 21 17 16 15 15 26 28 29 30 29 27 26 25 27 25 26 27 25 25 28 29 25 27 30 24 23 22 22 21
27 25 26 26 27 27 27 27 28 29 29 31 30 29 29 28 29 29 28 28 29 26 26 26 25 26 27 27 27 27 27 30 27 28 26 26 25 27 23 23 22 22 22
26 28 25 27 28 28 27 28 27 29 29 30 27 27 19 25 24 26 27 27 25 25 24 25 25 26 27 27 28 28 28 26 26 28 27 26 28 26 25 23 22 22 22
27 28 29 28 27 26 26 28 29 30 29 28 25 28 17 21 26 25 25 24 23 24 24 25 24 25 25 26 26 26 26 26 26 28 27 26 28 27 25 24 23 23 23
28 28 29 32 30 30 30 31 29 28 27 27 26 25 27 24 23 23 23 22 23 23 24 25 24 23 25 25 25 25 25 25 25 28 28 27 27 26 27 25 24 23 23
29 29 29 30 31 29 29 29 28 28 26 25 25 24 24 23 23 22 22 21 22 22 22 23 22 22 22 25 25 25 24 24 25 26 28 26 26 26 26 25 24 23 23
31 31 30 29 29 27 28 28 27 26 25 24 24 24 23 23 23 22 21 21 21 21 21 21 21 21 23 23 23 26 25 22 23 25 28 27 26 26 26 25 24 24 24
31 30 28 29 29 28 27 26 25 25 24 24 23 23 22 22 21 21 20 20 20 20 20 20 20 21 21 22 23 23 24 22 24 25 25 26 26 26 26 25 25 24 23

GFSGL_con_lsi_210.txt.gz
Lid_Strength_Index
16 15 15 14 13 13 13 13 13 13 13 13 13 13 12 12 13 13 13 13 14 14 14 14 14 13 13 12 12 12 13 13 12 11 12 13 15 15 16 15 15 16 16
16 16 16 15 14 15 15 15 14 15 15 15 15 15 15 15 15 15 16 16 16 16 15 15 14 13 14 14 14 14 14 13 13 14 13 14 16 17 17 18 17 16 17
16 16 16 16 16 16 16 15 15 15 15 15 15 16 16 15 15 15 14 15 15 15 15 15 15 14 15 15 15 15 15 14 14 14 16 16 16 18 18 18 18 17 16
16 16 17 17 16 16 16 16 15 15 16 16 16 16 15 15 14 14 14 15 15 15 15 16 16 16 16 16 16 17 16 17 16 17 17 17 18 17 18 19 19 18 18
17 17 17 16 16 16 16 16 16 17 17 17 17 16 15 15 15 16 15 15 16 16 15 16 16 16 14 15 16 17 17 17 17 18 18 18 19 19 19 18 19 18 17
17 18 17 17 17 17 16 16 17 17 17 17 17 17 16 15 13 14 15 16 16 17 17 16 16 16 15 14 15 14 15 17 18 18 19 19 19 18 17 17 18 19 20
18 18 18 17 18 17 17 17 17 17 17 17 17 16 16 15 14 14 15 16 17 17 16 16 16 16 16 16 15 15 15 14 15 17 18 18 18 17 16 17 18 18 19
18 18 18 18 18 18 18 18 18 18 18 17 17 17 16 15 14 14 15 16 17 17 16 16 16 16 15 16 16 16 16 16 15 15 16 16 16 15 15 16 18 18 18
19 18 18 18 18 18 18 19 18 18 18 18 17 17 17 16 14 14 15 16 17 17 16 16 16 16 14 14 16 16 16 16 14 14 14 14 14 14 14 16 22 22 24
19 19 18 18 18 18 18 18 17 17 18 17 17 18 17 17 14 14 15 15 16 16 16 16 15 15 13 13 16 16 17 16 16 17 16 16 15 14 14 15 16 24 23
19 19 19 18 19 19 18 18 18 18 18 19 19 19 18 18 16 14 15 16 16 16 17 17 16 14 13 13 13 15 15 14 16 18 18 18 17 16 16 16 16 18 21
19 20 20 20 19 19 20 19 19 19 20 21 21 20 20 19 17 15 15 15 15 16 17 16 16 13 13 12 13 13 13 16 22 23 23 21 19 19 18 18 18 18 17
20 21 22 21 19 19 21 21 21 21 22 21 21 22 21 19 19 16 15 15 15 16 16 15 13 13 13 15 14 14 18 21 22 25 23 20 19 18 19 21 22 21 21
22 22 21 22 21 21 20 20 20 21 21 20 20 21 21 20 19 18 16 16 15 15 15 16 15 14 15 16 19 19 19 19 21 22 22 21 22 24 25 23 24 22 25
22 22 22 22 22 22 20 21 19 20 19 22 22 21 23 23 19 15 15 17 18 16 21 23 23 22 22 22 22 23 21 22 23 23 25 25 23 23 22 24 25 26 26
22 22 22 22 22 22 22 22 18 17 15 16 15 18 17 16 14 14 13 13 13 12 24 26 24 23 22 22 23 23 23 23 22 23 25 25 23 23 22 22 24 27 25
21 21 21 21 22 22 23 23 25 21 16 15 15 14 14 15 14 13 13 13 12 15 27 27 26 24 24 23 23 24 24 23 25 26 26 26 25 25 25 24 24 24 24
24 23 22 23 23 24 24 24 25 26 26 25 19 16 15 14 14 13 13 15 26 25 30 29 28 26 24 24 24 25 25 26 27 26 27 27 30 30 29 27 26 26 24
25 25 24 24 25 24 25 26 27 29 29 30 30 22 21 16 15 14 15 27 29 30 30 29 27 26 25 26 25 26 28 27 28 30 31 31 31 32 28 28 26 25 24
27 25 25 26 27 28 27 27 27 29 29 31 31 30 30 28 29 30 30 30 29 26 26 26 25 26 27 27 27 28 28 29 28 29 28 29 29 31 27 27 27 26 25
27 28 27 28 28 28 28 28 28 30 30 30 28 27 20 27 25 26 26 26 26 25 25 25 25 26 27 27 28 29 28 26 27 28 28 28 30 30 29 28 26 25 25
28 29 30 29 29 28 29 29 29 30 28 28 26 29 17 23 26 25 24 24 24 24 24 25 24 25 24 26 26 27 27 26 27 28 27 27 30 29 30 29 28 26 26
28 29 29 30 30 30 31 30 30 29 27 28 27 26 30 26 25 24 23 23 23 24 24 26 24 23 24 24 24 24 25 24 24 26 27 28 28 29 30 28 28 27 26
28 28 28 29 31 31 30 30 29 29 28 27 28 26 25 25 25 24 23 22 23 23 23 24 23 23 21 22 23 24 24 23 26 26 27 27 26 27 29 28 27 27 26
31 30 30 29 30 29 30 29 29 28 27 27 26 26 25 25 24 23 22 22 22 22 22 22 22 22 23 22 21 23 24 21 23 25 27 27 26 25 26 27 27 27 26
32 32 31 32 31 31 30 28 28 27 27 26 26 25 24 23 23 23 22 22 22 21 21 20 21 22 22 21 20 20 22 21 23 22 24 26 25 25 26 27 27 27 26

GFSGL_con_lsi_216.txt.gz
Lid_Strength_Index
16 15 15 15 14 14 14 14 14 14 13 13 13 13 14 14 13 13 14 14 14 15 14 15 16 16 16 16 15 15 15 14 11 13 14 16 18 18 18 17 17 17 17
16 16 16 15 15 15 16 16 15 15 15 15 15 15 15 15 15 15 16 16 16 17 17 17 17 16 17 16 15 15 15 14 14 16 17 17 19 18 18 18 17 16 17
17 16 16 16 16 17 17 16 16 16 16 16 16 16 16 16 16 16 17 17 18 18 17 17 17 17 17 16 16 17 17 17 16 16 18 18 18 18 18 17 17 17 16
16 17 17 17 17 17 17 17 17 17 16 16 16 16 16 16 17 17 17 18 18 17 16 17 17 18 18 18 17 17 16 16 17 17 18 18 18 17 18 18 18 16 17
16 17 17 17 17 17 17 17 17 17 17 16 16 16 16 16 17 17 17 17 17 18 17 17 16 16 14 15 16 17 17 17 17 18 18 18 18 18 19 17 18 18 17
16 16 16 16 16 16 16 16 16 16 16 16 16 16 15 15 13 14 15 16 16 16 17 17 17 17 15 14 14 14 15 17 18 17 18 18 18 18 17 17 18 19 20
17 17 17 17 17 18 17 17 17 17 17 17 16 16 16 15 13 14 14 16 16 17 16 16 17 17 17 17 15 15 14 13 14 16 17 18 18 17 17 17 18 18 18
18 18 17 17 18 18 18 18 18 17 18 17 17 16 16 15 14 14 15 16 17 17 17 16 16 16 15 16 16 16 16 15 15 16 16 16 16 15 16 16 17 18 18
19 19 18 18 18 18 18 18 18 18 18 17 17 17 16 16 14 14 16 17 17 17 16 16 15 15 13 14 16 17 17 16 14 14 15 14 14 13 13 16 23 24 25
19 19 18 18 18 19 18 18 18 17 17 16 17 17 18 16 14 14 15 15 17 16 16 16 14 15 13 14 16 17 18 17 17 18 17 16 15 15 14 16 17 24 24
18 18 18 18 18 18 18 18 18 18 18 18 18 18 18 18 15 14 14 15 15 16 17 17 16 14 14 13 14 16 15 16 17 19 19 19 18 17 17 16 17 18 22
18 19 19 18 17 17 18 18 18 19 19 20 20 20 20 19 15 14 14 14 15 16 17 17 16 14 14 13 14 13 13 16 23 24 24 22 20 20 19 19 19 19 18
19 19 20 19 18 18 19 19 20 19 20 21 20 21 21 19 19 15 15 15 15 17 16 16 14 14 14 16 14 14 19 22 23 25 24 21 20 19 21 23 23 24 23
21 21 21 21 21 21 19 19 20 21 21 20 21 22 23 21 20 19 18 18 16 16 16 18 15 15 15 16 19 19 19 20 22 23 23 22 23 26 27 24 26 25 27
20 21 21 21 22 22 21 21 20 20 19 21 22 21 23 24 20 17 17 19 20 17 23 23 22 22 22 22 23 23 22 23 24 24 26 27 25 24 24 25 26 29 28
22 22 22 22 23 22 23 23 17 16 15 15 15 18 19 17 15 14 14 13 12 12 24 25 24 23 22 23 24 24 24 24 23 24 27 27 25 25 24 25 26 29 29
20 21 22 21 22 23 23 23 24 21 15 14 14 14 14 15 14 13 13 12 12 13 23 25 25 24 23 23 24 25 25 24 26 27 27 27 25 26 28 26 26 28 27
24 22 22 22 23 24 24 24 25 25 25 25 19 15 14 13 13 13 13 13 23 24 29 28 27 26 26 25 26 27 27 27 28 26 27 28 29 30 32 29 28 32 28
23 24 23 24 24 24 24 26 26 28 28 29 30 22 22 16 14 13 13 23 25 28 31 32 30 29 27 27 26 27 27 27 27 29 31 30 30 33 30 28 29 28 30
25 23 24 25 27 27 27 26 28 29 29 30 30 30 31 29 30 30 31 32 32 31 30 29 28 28 28 27 27 28 28 30 29 29 27 27 28 30 29 28 30 29 31
25 27 26 27 27 27 27 27 27 28 28 29 28 30 23 30 30 31 32 31 30 28 27 27 26 26 27 27 28 28 28 26 26 26 26 26 28 30 29 27 28 30 30
26 27 28 27 28 28 28 28 28 29 29 29 30 32 20 27 29 28 28 27 26 26 25 25 24 25 24 25 25 26 25 24 24 25 25 25 27 28 28 29 29 30 30
27 28 29 31 29 30 30 31 30 30 30 30 31 31 33 30 30 29 28 26 27 26 26 27 25 24 23 24 24 23 23 22 22 22 23 24 25 25 27 27 27 30 31
29 29 28 29 30 30 30 30 30 31 31 31 32 31 30 30 29 28 27 27 27 26 25 25 25 24 22 22 22 22 22 22 21 21 23 23 24 24 24 25 25 26 27
30 30 29 29 30 29 30 30 30 31 31 31 30 31 31 30 29 28 26 25 25 24 23 22 22 22 22 22 21 21 21 20 20 21 23 25 25 24 24 24 24 26 26
30 30 29 31 31 32 32 31 31 31 31 30 30 30 29 28 27 26 25 25 24 23 23 22 21 21 21 20 20 20 20 18 20 21 22 25 26 25 25 25 25 24 24

GFSGL_con_lsi_219.txt.gz
Lid_Strength_Index
15 14 14 14 13 13 13 13 14 13 13 13 12 13 13 13 13 13 14 14 15 15 15 16 16 16 16 15 15 14 14 12 11 14 14 16 17 17 16 15 15 15 14
16 15 15 15 15 15 15 15 15 15 15 15 15 15 15 15 15 16 16 16 16 17 17 16 17 16 16 16 15 15 15 13 12 15 16 16 17 16 16 16 16 15 15
16 16 16 16 16 17 17 16 16 16 16 16 16 16 17 16 17 17 17 17 17 17 17 17 17 16 17 17 16 16 16 16 14 14 17 16 16 16 16 15 15 15 14
17 17 17 17 17 17 17 17 17 16 16 17 17 17 17 17 17 17 17 17 17 17 16 16 16 17 17 16 16 16 16 16 16 16 17 17 17 16 15 16 15 14 15
16 16 17 17 17 17 17 17 17 16 16 16 16 16 16 16 16 16 16 17 17 17 16 16 15 14 14 14 16 16 16 16 16 17 17 17 16 16 17 16 16 15 15
16 16 16 16 16 16 16 17 17 17 16 15 15 15 15 14 13 14 15 16 16 16 17 16 16 16 14 14 13 14 15 16 17 16 17 17 17 16 16 16 17 17 18
16 16 16 16 16 16 16 16 16 16 16 16 16 15 15 14 13 14 15 15 16 16 16 16 17 16 16 16 15 14 14 13 14 15 16 17 16 16 16 17 17 17 17
17 17 17 17 17 17 16 16 16 16 16 16 16 15 15 14 13 14 15 16 16 16 16 15 15 15 15 16 16 16 15 15 15 15 15 15 15 14 15 15 16 16 16
18 18 18 17 18 18 17 17 17 16 16 16 16 16 15 15 14 14 15 16 16 16 15 15 15 14 14 14 16 16 16 16 14 14 14 14 14 13 13 14 17 18 18
19 18 18 18 18 18 18 18 17 17 17 16 16 16 16 15 13 14 15 15 16 16 16 15 14 14 13 14 16 16 17 16 16 17 16 16 15 15 14 15 16 18 19
18 18 18 18 18 18 18 18 18 17 17 18 18 18 17 17 14 14 14 15 16 16 17 16 15 14 13 13 14 15 15 16 17 17 17 17 16 16 16 16 16 17 18
18 18 18 18 17 17 17 18 18 18 18 19 19 19 18 17 14 13 13 14 14 16 16 16 15 14 14 14 14 14 14 17 18 18 18 18 18 18 17 18 18 18 17
17 18 19 18 17 17 18 18 18 18 19 19 19 20 19 18 17 14 14 14 14 16 15 15 14 14 14 16 15 15 19 18 19 19 19 19 18 19 19 19 19 19 19
18 19 19 19 19 19 18 18 18 19 20 19 19 20 20 19 18 18 17 17 16 15 15 17 15 15 15 16 18 18 18 19 19 19 19 19 20 20 21 20 20 20 21
19 20 20 20 20 20 20 19 18 19 18 19 19 19 20 19 18 16 16 17 16 16 19 19 18 18 18 19 19 20 20 20 20 20 20 21 21 21 21 21 21 22 22
20 20 20 20 21 21 21 21 17 16 15 14 14 17 17 16 15 14 13 13 13 13 19 19 19 19 19 19 20 20 21 21 20 20 21 21 21 21 21 21 22 23 23
19 20 20 20 21 21 21 21 21 19 15 13 13 13 13 15 14 14 13 13 12 13 19 20 19 20 20 20 20 21 21 20 22 22 22 22 22 22 23 22 22 23 22
21 21 20 21 21 21 21 21 22 22 22 21 18 15 14 13 13 13 13 13 18 20 21 21 21 21 21 21 22 22 22 22 22 22 22 23 23 24 23 23 23 24 23
21 22 21 22 22 22 22 23 23 24 24 25 25 21 22 16 15 13 13 17 20 21 23 23 23 23 23 23 23 23 23 23 23 23 24 25 25 25 24 25 24 25 26
22 22 23 23 24 24 24 24 24 25 25 26 27 26 26 26 24 24 24 25 24 24 23 24 23 25 24 24 24 24 24 25 25 25 24 24 24 25 25 24 24 24 24
23 24 23 24 24 24 24 24 24 26 26 27 26 27 23 26 26 27 26 26 26 25 24 25 24 24 24 24 25 25 25 23 22 23 22 22 23 24 24 24 24 24 25
23 24 24 24 25 25 26 26 26 27 27 27 27 28 20 23 26 26 26 26 25 25 24 24 23 24 23 23 24 24 24 23 21 21 21 21 22 23 22 23 24 24 25
25 26 27 28 27 28 28 28 28 28 28 28 28 28 30 29 28 28 27 26 25 25 25 26 25 24 23 23 23 22 22 21 20 19 20 20 21 21 21 23 23 23 24
27 27 27 27 29 29 28 28 29 30 29 29 29 29 29 29 29 28 28 27 27 27 26 26 26 25 23 23 22 22 22 21 20 20 20 21 21 21 22 22 23 23 23
28 28 28 28 29 28 29 29 29 29 29 29 29 30 30 30 30 29 28 28 27 26 25 25 24 24 23 23 22 21 21 20 19 20 21 21 22 22 22 23 23 23 24
30 30 29 30 30 30 30 29 29 29 29 29 30 30 29 29 29 28 28 28 27 26 25 24 23 23 22 22 21 20 20 19 19 20 20 21 23 23 23 24 24 24 24

GFSGL_con_lsi_222.txt.gz
Lid_Strength_Index
12 12 12 12 12 12 12 12 12 12 11 11 11 11 11 11 11 12 13 13 14 14 14 15 15 14 14 14 13 13 12 9 11 14 14 16 16 15 14 13 13 14 13
13 13 13 14 14 14 14 14 14 14 14 13 13 13 13 13 14 14 15 15 15 15 15 15 15 15 15 14 14 14 13 11 10 13 14 14 15 14 14 14 14 14 13
14 14 14 15 15 16 16 15 15 15 16 16 15 15 15 15 16 15 15 16 16 16 16 16 16 15 15 14 14 15 14 13 11 12 15 14 14 14 14 13 13 13 13
14 15 15 15 15 15 16 16 16 16 16 16 16 16 16 16 16 16 16 16 16 16 15 15 15 15 15 14 14 14 14 14 14 14 15 15 14 14 13 14 13 12 13
15 15 16 16 15 16 16 16 16 15 15 15 15 15 15 15 16 15 15 15 15 15 15 14 13 13 13 14 14 14 14 14 14 15 15 14 14 15 15 14 14 14 12
15 16 16 15 15 15 15 15 15 15 14 14 15 14 14 14 14 14 14 15 15 15 15 15 14 14 14 13 13 14 14 15 15 15 15 15 15 15 14 15 15 15 15
14 15 15 15 15 15 15 14 14 14 13 13 13 12 13 13 13 14 14 14 14 15 15 16 16 15 15 15 14 14 14 14 14 14 15 16 15 15 14 15 15 15 15
15 15 15 15 15 15 15 15 14 14 14 14 14 13 13 13 13 14 14 14 14 14 14 14 14 14 15 15 15 15 15 14 14 14 14 14 14 13 14 14 15 15 14
16 16 16 15 15 15 15 15 15 15 15 15 15 14 14 14 14 14 14 15 15 15 14 14 14 14 14 14 15 16 15 15 14 14 14 14 14 14 13 14 15 15 15
16 16 16 16 16 16 16 16 16 15 16 15 16 15 14 14 14 14 15 15 16 15 15 14 14 13 14 14 15 15 15 15 15 15 15 15 15 14 15 14 15 17 16
16 16 16 16 16 16 16 16 16 16 16 16 16 16 15 14 14 14 14 14 15 15 15 15 14 14 13 13 14 14 14 15 15 16 15 15 15 15 15 15 16 16 17
16 16 16 16 16 15 15 16 16 15 16 16 16 16 16 15 13 13 14 14 14 14 15 15 14 14 14 14 14 14 15 16 15 15 16 15 16 16 16 16 17 17 16
16 16 16 16 15 15 15 15 16 16 16 16 16 16 16 15 14 14 14 14 14 14 14 14 14 14 14 15 15 15 17 16 16 16 16 16 16 17 18 17 17 17 17
15 16 16 16 16 16 15 15 14 15 15 16 16 16 16 16 15 15 15 14 15 14 14 14 14 14 15 15 16 16 16 16 17 17 17 17 17 17 17 17 17 17 17
15 16 16 15 15 16 15 15 15 15 14 14 14 14 15 16 15 15 14 14 13 13 15 14 14 15 15 15 15 17 17 17 17 17 18 17 17 17 17 17 18 18 18
15 15 15 15 16 16 16 16 15 15 14 14 14 15 14 14 14 14 13 13 13 12 14 15 15 15 16 16 16 16 17 18 17 17 17 18 18 17 17 17 18 19 19
14 15 15 16 15 16 16 16 16 16 14 13 12 12 12 14 14 13 13 13 12 12 13 15 15 15 16 16 16 17 17 17 18 18 18 18 18 18 19 18 18 18 18
14 16 14 15 15 15 16 16 15 15 15 15 14 13 12 12 12 13 13 13 14 15 15 15 15 15 16 16 17 18 18 18 18 18 18 18 19 19 18 18 18 18 18
14 14 14 14 15 16 16 16 16 16 16 16 17 17 17 15 14 13 13 13 14 15 15 16 16 16 17 17 18 18 18 18 18 19 19 19 19 19 19 19 19 20 21
15 16 16 15 16 17 16 17 17 17 17 18 18 18 18 21 19 18 16 16 16 17 16 17 17 17 18 19 19 19 19 19 19 20 20 19 19 19 20 20 19 19 19
15 15 17 16 16 16 16 17 17 17 18 19 19 18 19 20 19 19 19 19 19 19 19 18 18 19 19 19 20 20 20 20 19 19 19 19 19 19 19 19 19 19 20
16 16 17 17 17 18 18 18 18 19 19 20 19 20 18 18 19 20 20 20 20 20 20 20 19 19 19 19 19 19 20 20 19 19 19 19 19 19 19 19 19 19 19
17 17 18 18 19 20 20 20 20 20 20 20 20 21 22 22 21 21 21 21 21 21 21 21 21 21 20 21 20 20 20 19 19 18 19 19 19 19 19 19 19 19 19
18 19 19 19 20 21 20 20 21 23 21 21 21 22 22 22 22 22 23 22 22 22 22 22 23 23 22 21 20 20 20 20 19 20 20 20 20 19 19 20 19 20 20
20 20 20 20 21 22 21 22 22 22 22 22 22 22 23 23 23 23 23 23 24 24 23 23 23 23 23 23 23 21 20 20 21 21 20 20 20 20 20 20 20 20 20
22 22 22 21 22 22 22 22 22 22 23 23 23 23 23 23 23 23 23 24 25 25 24 23 23 23 22 22 21 21 21 20 21 21 20 20 20 20 20 20 21 21 21